SCP
0 0 0 0 0 0 0 0 0 0 0 0 0 0 0 0 0 0 0 0 0 0 0 0 0 0 0 0 0 0 0 0 0 0 0 0 0 0 0 0 0 0 0 -0
0 0 0 0 0 0 0 0 0 0 0 0 0 0 0 0 0 0 0 0 0 0 0 0 0 0 0 0 0 0 0 0 0 0 0 0 0 0 0 0 0 0 0 0
0 0 0 0 0 0 0 0 0 0 0 0 0 0 0 0 0 0 0 0 0 0 0 0 0 0 0 0 0 0 0 0 0 0 0 0 0 0 0 0 0 0 0 0
0 0 0 0 0 0 0 0 0 0 0 0 0 0 0 0 0 0 0 0 0 0 0 0 0 0 0 0 0 0 0 0 0 0 0 0 0 0 0 0 0 0 0 0
0 0 0 0 0 0 0 0 0 0 0 0 0 0 0 0 0 0 0 0 0 0 0 0 0 0 0 0 0 0 0 0 0 0 0 0 0 0 0 0 0 0 0 0
0 0 0 0 0 0 0 0 0 0 0 0 0 0 0 0 0 0 0 0 0 0 0 0 0 0 0 0 0 0 0 0 0 0 0 0 0 0 0 0 0 0 0 0
0 0 0 0 0 0 0 0 0 0 0 0 0 0 0 0 0 0 0 0 0 0 0 0 0 0 0 0 0 0 0 0 0 0 0 0 0 0 0 0 0 0 0 0
0 0 0 0 0 0 0 0 0 0 0 0 0 0 0 0 0 0 0 0 0 0 0 0 0 0 0 0 0 0 0 0 0 0 0 0 0 0 0 0 0 0 0 0
0 0 0 0 0 0 0 0 0 0 0 0 0 0 0 0 0 0 0 0 0 0 0 0 0 0 0 0 0 0 0 0 0 0 0 0 0 0 0 0 0 0 0 0
0 0 0 0 0 0 0 0 0 0 0 0 0 0 0 0 0 0 0 0 0 0 0 0 0 0 0 0 0 0 0 0 0 0 0 0 0 0 0 0 0 0 0 0
0 0 0 0 0 0 0 0 0 0 0 0 0 0 0 0 0 0 0 0 0 0 0 0 0 0 0 0 0 0 0 0 0 0 0 0 0 0 0 0 0 0 0 0
0 0 0 0 0 0 0 0 0 0 0 0 0 0 0 0 0 0 0 0 0 0 0 0 0 0 0 0 0 0 0 0 0 0 0 0 0 0 0 0 0 0 0 0
0 0 0 0 0 0 0 0 0 0 0 0 0 0 0 0 0 0 0 0 0 0 0 0 0 0 0 0 0 0 0 0 0 0 0 0 0 0 0 0 0 0 0 0
0 0 0 0 0 0 0 0 0 0 0 0 0 0 0 0 0 0 0 0 0 0 0 0 0 0 0 0 0 0 0 0 0 0 0 0 0 0 0 0 0 0 0 -0
0 0 0 0 0 0 0 0 0 0 0 0 0 0 0 0 0 0 0 0 0 0 0 0 0 0 0 0 0 0 0 0 0 0 0 0 0 0 0 0 0 0 0 0
0 0 0 0 0 0 0 0 0 0 0 0 0 0 0 0 0 0 0 0 0 0 0 0 0 0 0 0 0 0 0 0 0 0 0 0 0 0 0 0 0 0 -0 -0
0 0 0 0 0 0 0 0 0 0 0 0 0 0 0 0 0 0 0 0 0 0 0 0 0 0 0 0 0 0 0 0 0 0 0 0 0 0 0 0 0 0 -0 0
0 0 0 0 0 0 0 0 0 0 0 0 0 0 0 0 0 0 0 0 0 0 0 0 0 0 0 0 0 0 0 0 0 0 0 0 0 0 0 0 0 0 0 0
0 0 0 0 0 0 0 0 0 0 0 0 0 0 0 0 0 0 0 0 0 0 0 0 0 0 0 0 0 0 0 0 0 0 0 0 0 0 0 0 0 0 0 0
0 0 0 0 0 0 0 0 0 0 0 0 0 0 0 0 0 0 0 0 0 0 0 0 0 0 0 0 0 0 0 0 0 0 0 0 0 0 0 0 0 0 0 0
0 0 0 0 0 0 0 0 0 0 0 0 0 0 0 0 0 0 0 0 0 0 0 0 0 0 0 0 0 0 0 0 0 0 0 0 0 0 0 0 0 0 0 0
0 0 0 0 0 0 0 0 0 0 0 0 0 0 0 0 0 0 0 0 0 0 0 0 0 0 0 0 0 0 0 0 0 0 0 0 0 0 0 0 0 0 0 0
0 0 0 0 0 0 0 0 0 0 0 0 0 0 0 0 0 0 0 0 0 0 0 0 0 0 0 0 0 0 0 0 0 0 0 0 0 0 0 0 0 0 0 0
0 0 0 0 0 0 0 0 0 0 0 0 0 0 0 0 0 0 0 0 0 0 0 0 0 0 0 0 0 0 0 0 0 0 0 0 0 0 0 0 0 0 0 0
0 0 0 0 0 0 0 0 0 0 0 0 0 0 0 0 0 0 0 0 0 0 0 0 0 0 0 0 0 0 0 0 0 0 0 0 0 0 0 0 0 0 0 0
0 0 0 0 0 0 0 0 0 0 0 0 0 0 0 0 0 0 0 0 0 0 0 0 0 0 0 0 0 0 0 0 0 0 0 0 0 0 0 0 0 0 0 0
0 0 0 0 0 0 0 0 0 0 0 0 0 0 0 0 0 0 0 0 0 0 0 0 0 0 0 0 0 0 0 0 0 0 0 0 0 0 0 0 0 0 0 0
Wind_Speed_500mb
3 8 16 28 33 31 28 15 12 13 30 36 32 24 20 13 17 14 11 3 6 12 18 21 24 27 30 32 37 40 42 46 47 56 58 64 70 74 74 76 82 81 79 77
10 7 3 16 22 32 31 29 21 14 9 17 22 21 15 20 19 13 7 1 6 12 16 19 23 26 28 34 37 40 42 45 49 54 59 63 68 74 78 79 76 78 72 77
10 16 7 9 33 33 31 33 29 25 20 19 10 18 24 23 19 13 6 2 7 10 14 18 22 26 29 34 36 38 40 43 48 53 59 65 70 75 80 88 83 80 84 76
11 18 8 9 11 42 34 31 29 23 18 21 23 26 25 16 13 13 8 1 4 8 12 18 21 23 29 31 33 36 38 44 49 56 60 65 70 70 74 81 93 93 84 78
9 19 4 13 13 13 28 29 28 30 23 20 22 15 15 23 17 17 6 4 2 4 11 15 19 24 28 30 33 34 40 46 52 57 62 68 70 73 83 81 83 82 82 80
9 8 15 4 23 18 21 18 33 36 31 31 32 15 14 26 23 12 10 6 2 5 9 13 19 23 26 28 31 36 42 48 52 56 61 66 70 86 75 77 73 72 75 76
13 9 10 26 32 29 15 6 39 44 36 38 23 17 37 24 14 14 11 6 1 4 8 14 18 22 24 26 30 35 40 45 49 54 61 62 79 74 72 71 72 75 81 81
18 12 16 46 36 23 16 20 32 36 34 33 33 38 30 18 15 17 10 3 1 3 8 12 16 18 21 24 29 34 39 43 47 53 54 71 71 72 73 74 77 78 78 83
23 13 8 65 23 29 32 38 34 33 30 31 28 23 16 14 20 17 10 5 2 3 7 10 13 16 19 24 28 33 37 40 46 51 62 66 70 73 75 75 77 76 79 83
20 20 30 52 30 37 36 39 34 32 33 32 32 26 22 22 22 18 11 7 2 2 6 9 12 15 17 21 25 31 34 38 43 56 61 61 68 72 72 76 78 77 79 86
21 26 37 50 38 48 39 38 35 32 32 32 29 28 26 24 24 20 13 9 5 0 4 7 12 14 17 20 28 33 32 35 43 55 60 57 62 67 69 68 68 69 71 80
13 33 25 48 54 46 47 41 37 36 32 27 25 28 28 22 24 20 17 13 7 3 1 5 9 13 16 23 31 31 32 36 45 53 56 57 59 63 60 61 62 62 66 69
14 41 45 43 50 53 48 44 39 35 32 30 29 29 27 27 26 23 18 14 10 6 1 4 8 12 18 27 30 28 31 34 43 49 50 54 57 61 69 68 62 62 68 71
30 26 49 41 43 51 46 47 44 38 33 33 33 32 29 29 31 23 20 16 12 7 2 4 8 12 22 26 29 27 29 30 41 43 48 50 52 55 58 66 70 70 68 71
36 38 35 39 35 37 40 41 42 42 38 37 35 36 38 35 27 26 22 17 12 8 6 10 9 12 21 25 27 28 27 37 38 38 47 50 46 49 54 58 63 66 68 69
41 44 36 43 43 43 43 43 45 45 41 38 39 43 40 35 32 29 24 20 15 11 13 13 11 16 19 23 26 28 33 36 33 33 41 47 45 46 49 52 56 60 63 67
46 45 48 44 54 51 53 49 48 45 44 45 45 46 42 39 36 32 26 22 16 13 12 11 14 16 19 22 25 30 34 34 32 30 39 41 41 39 43 45 48 53 55 59
48 53 60 63 52 55 53 53 51 50 50 52 49 49 46 46 45 38 34 27 17 14 13 17 17 17 20 22 24 29 31 32 32 29 36 38 38 38 41 41 44 49 51 53
55 52 59 58 56 51 56 57 58 58 53 58 57 55 54 51 45 43 31 22 18 16 14 16 15 19 21 22 23 28 30 33 33 32 33 33 34 35 37 41 42 44 47 50
55 58 54 61 59 59 59 60 62 61 59 63 62 62 57 49 43 35 30 24 20 19 15 15 17 20 21 22 22 28 30 31 30 30 31 32 32 34 35 37 38 40 43 47
60 59 56 59 59 57 57 62 66 66 68 66 65 61 55 48 42 37 33 27 19 19 19 18 18 18 20 20 24 29 29 29 29 28 28 30 30 31 33 36 38 40 42 44
65 63 59 58 57 59 58 62 66 69 72 67 59 56 52 48 43 37 29 25 21 19 20 20 18 16 18 20 25 28 27 27 26 26 25 26 27 28 30 32 34 37 39 43
59 60 61 60 59 60 63 62 70 70 64 64 61 57 51 48 41 36 30 22 24 20 18 21 17 18 21 23 26 26 24 23 22 21 21 21 22 25 27 30 32 34 37 40
53 52 55 62 58 61 68 66 63 61 59 55 56 53 51 48 40 31 26 20 19 18 22 23 20 22 24 26 26 25 23 21 19 19 19 20 21 23 25 27 29 31 33 36
49 49 47 55 64 63 64 56 52 53 59 58 56 53 48 44 35 28 26 21 18 21 23 23 23 25 27 27 25 24 23 20 18 17 18 18 19 21 23 26 28 29 32 35
49 50 53 59 64 62 59 62 60 59 64 61 58 55 52 44 36 33 30 23 23 27 24 22 24 27 28 28 26 24 23 20 18 16 17 17 17 18 20 22 24 26 29 33
47 48 49 53 53 57 63 68 63 64 65 63 58 53 49 44 40 38 32 30 27 29 32 29 29 29 31 30 29 26 25 21 18 17 16 16 15 16 18 19 21 23 26 30
Wind_Direction_500mb
73 54 161 183 191 191 199 198 193 213 172 180 185 186 191 175 171 187 207 219 3 355 352 349 347 344 342 339 342 342 341 342 340 334 335 335 334 334 332 330 326 328 326 323
174 169 185 195 201 196 209 205 206 221 208 110 136 155 166 192 196 196 218 220 345 343 341 347 344 342 339 338 339 340 338 340 334 335 334 335 333 331 328 326 326 326 325 320
205 182 163 272 228 215 211 213 213 214 214 220 161 181 183 194 198 196 195 82 337 341 344 343 340 339 336 337 337 337 341 335 336 334 332 332 331 329 327 325 324 323 321 322
148 141 214 185 141 210 219 216 211 218 225 214 173 180 193 184 195 178 129 270 339 345 340 336 336 332 334 337 339 340 337 336 336 335 335 334 331 331 329 323 320 321 322 322
158 201 315 187 194 188 191 220 206 206 197 186 165 142 185 214 168 145 163 144 108 340 337 335 332 333 335 340 338 340 339 338 338 338 335 333 336 332 325 327 324 327 327 329
195 204 206 271 150 169 187 236 203 199 187 186 158 187 138 130 135 150 153 147 113 345 340 334 332 331 338 339 341 339 338 338 337 336 335 339 329 328 332 333 336 336 335 337
190 225 266 140 145 151 161 214 176 179 186 180 167 185 133 137 147 159 160 155 58 351 346 335 332 333 338 341 339 337 336 333 337 339 340 331 336 339 341 347 347 345 342 338
200 202 234 152 150 177 143 128 140 159 165 163 172 140 140 153 165 166 167 181 301 356 342 337 331 337 340 340 337 336 333 338 341 341 338 341 346 347 354 352 348 345 342 339
193 200 246 161 158 158 145 139 144 153 156 166 165 168 172 177 175 176 179 189 187 347 342 335 343 343 340 339 338 335 339 343 342 340 343 354 356 357 356 355 351 347 345 342
168 204 168 162 160 158 161 155 156 161 161 168 172 176 184 185 185 183 185 179 174 339 344 347 345 347 345 341 336 341 345 347 342 343 352 357 4 5 1 358 353 353 352 349
192 165 164 173 171 162 164 165 165 167 169 174 181 188 187 191 192 180 177 176 183 214 359 346 348 346 346 336 337 346 351 344 337 350 356 359 5 4 4 3 359 358 357 352
196 181 166 182 177 176 171 175 175 174 174 185 192 189 186 195 182 175 181 181 173 175 350 348 346 342 340 330 343 347 350 340 338 342 355 1 2 359 5 4 6 5 4 1
192 185 179 178 185 186 182 181 184 186 193 186 185 189 190 191 180 178 177 179 175 176 162 348 327 341 326 336 346 350 340 338 330 337 351 357 3 1 356 357 3 7 7 9
201 170 170 165 178 190 193 188 191 194 193 194 191 192 193 183 183 180 186 186 180 179 179 272 315 328 324 342 346 350 345 325 328 348 346 350 1 2 359 358 358 0 3 5
180 176 169 166 172 177 187 190 182 185 189 193 198 196 186 182 186 182 183 183 185 187 190 265 308 311 323 341 345 348 339 333 350 357 336 344 352 357 358 355 357 1 0 2
193 176 185 181 184 184 184 185 182 186 194 195 192 184 182 183 184 182 181 192 199 190 220 266 290 300 324 333 340 343 340 347 354 351 332 346 353 356 355 355 355 360 2 1
195 200 193 190 191 190 189 189 191 191 192 190 186 181 182 182 181 181 181 197 209 230 251 272 280 301 315 323 333 338 343 350 347 348 333 347 352 355 356 356 357 360 2 4
208 204 202 198 194 194 194 194 195 192 192 188 185 185 186 186 185 184 189 210 223 241 252 264 286 300 304 313 326 334 341 344 345 343 343 351 355 359 356 359 1 1 1 4
208 211 207 204 202 201 199 196 194 195 193 189 188 190 195 198 197 199 209 219 232 244 256 269 285 290 297 306 320 330 336 338 342 342 344 348 350 355 356 357 0 2 3 6
209 212 209 204 207 204 202 200 194 195 194 192 193 197 201 204 203 206 212 225 236 252 263 279 288 294 296 304 321 326 332 334 338 338 341 343 345 349 351 352 356 359 2 6
205 209 211 201 201 200 199 197 194 194 196 198 203 203 202 202 205 209 215 226 237 251 259 271 286 297 297 312 315 319 325 329 332 335 338 342 346 350 355 359 2 4 5 8
204 207 210 208 205 197 197 195 198 198 199 199 199 199 198 200 203 210 218 232 242 245 252 263 283 307 304 303 303 310 319 327 332 336 343 348 353 358 1 2 4 7 11 14
198 203 209 210 202 198 192 194 197 201 195 196 195 195 198 202 204 208 218 228 246 250 248 260 286 299 302 297 300 308 316 320 324 330 337 343 348 355 358 0 5 8 11 13
191 191 198 201 192 184 183 186 195 197 199 197 197 197 198 199 203 208 221 232 232 237 246 265 275 286 294 294 296 300 303 309 315 322 329 335 344 353 356 358 3 8 12 13
186 182 183 182 180 182 181 176 186 196 195 194 194 195 198 206 214 212 227 237 236 237 253 263 268 276 283 287 286 287 291 299 304 311 320 328 336 347 351 354 360 5 10 12
176 175 181 182 181 182 183 183 182 189 187 190 191 193 197 202 206 214 232 240 239 240 252 263 267 271 277 281 279 275 278 286 291 300 307 316 326 338 345 349 355 0 5 7
174 175 172 170 171 173 174 175 176 183 186 191 192 195 201 206 215 224 235 245 248 245 253 261 267 270 274 274 271 268 270 275 279 288 295 302 313 326 335 341 347 353 358 0
Wind_Speed_850mb
3 8 16 28 33 31 28 15 12 13 30 36 32 24 20 13 17 14 11 3 6 12 18 21 24 27 30 32 37 40 42 46 47 56 58 64 70 74 74 76 82 81 79 77
10 7 3 16 22 32 31 29 21 14 9 17 22 21 15 20 19 13 7 1 6 12 16 19 23 26 28 34 37 40 42 45 49 54 59 63 68 74 78 79 76 78 72 77
10 16 7 9 33 33 31 33 29 25 20 19 10 18 24 23 19 13 6 2 7 10 14 18 22 26 29 34 36 38 40 43 48 53 59 65 70 75 80 88 83 80 84 76
11 18 8 9 11 42 34 31 29 23 18 21 23 26 25 16 13 13 8 1 4 8 12 18 21 23 29 31 33 36 38 44 49 56 60 65 70 70 74 81 93 93 84 78
9 19 4 13 13 13 28 29 28 30 23 20 22 15 15 23 17 17 6 4 2 4 11 15 19 24 28 30 33 34 40 46 52 57 62 68 70 73 83 81 83 82 82 80
9 8 15 4 23 18 21 18 33 36 31 31 32 15 14 26 23 12 10 6 2 5 9 13 19 23 26 28 31 36 42 48 52 56 61 66 70 86 75 77 73 72 75 76
13 9 10 26 32 29 15 6 39 44 36 38 23 17 37 24 14 14 11 6 1 4 8 14 18 22 24 26 30 35 40 45 49 54 61 62 79 74 72 71 72 75 81 81
18 12 16 46 36 23 16 20 32 36 34 33 33 38 30 18 15 17 10 3 1 3 8 12 16 18 21 24 29 34 39 43 47 53 54 71 71 72 73 74 77 78 78 83
23 13 8 65 23 29 32 38 34 33 30 31 28 23 16 14 20 17 10 5 2 3 7 10 13 16 19 24 28 33 37 40 46 51 62 66 70 73 75 75 77 76 79 83
20 20 30 52 30 37 36 39 34 32 33 32 32 26 22 22 22 18 11 7 2 2 6 9 12 15 17 21 25 31 34 38 43 56 61 61 68 72 72 76 78 77 79 86
21 26 37 50 38 48 39 38 35 32 32 32 29 28 26 24 24 20 13 9 5 0 4 7 12 14 17 20 28 33 32 35 43 55 60 57 62 67 69 68 68 69 71 80
13 33 25 48 54 46 47 41 37 36 32 27 25 28 28 22 24 20 17 13 7 3 1 5 9 13 16 23 31 31 32 36 45 53 56 57 59 63 60 61 62 62 66 69
14 41 45 43 50 53 48 44 39 35 32 30 29 29 27 27 26 23 18 14 10 6 1 4 8 12 18 27 30 28 31 34 43 49 50 54 57 61 69 68 62 62 68 71
30 26 49 41 43 51 46 47 44 38 33 33 33 32 29 29 31 23 20 16 12 7 2 4 8 12 22 26 29 27 29 30 41 43 48 50 52 55 58 66 70 70 68 71
36 38 35 39 35 37 40 41 42 42 38 37 35 36 38 35 27 26 22 17 12 8 6 10 9 12 21 25 27 28 27 37 38 38 47 50 46 49 54 58 63 66 68 69
41 44 36 43 43 43 43 43 45 45 41 38 39 43 40 35 32 29 24 20 15 11 13 13 11 16 19 23 26 28 33 36 33 33 41 47 45 46 49 52 56 60 63 67
46 45 48 44 54 51 53 49 48 45 44 45 45 46 42 39 36 32 26 22 16 13 12 11 14 16 19 22 25 30 34 34 32 30 39 41 41 39 43 45 48 53 55 59
48 53 60 63 52 55 53 53 51 50 50 52 49 49 46 46 45 38 34 27 17 14 13 17 17 17 20 22 24 29 31 32 32 29 36 38 38 38 41 41 44 49 51 53
55 52 59 58 56 51 56 57 58 58 53 58 57 55 54 51 45 43 31 22 18 16 14 16 15 19 21 22 23 28 30 33 33 32 33 33 34 35 37 41 42 44 47 50
55 58 54 61 59 59 59 60 62 61 59 63 62 62 57 49 43 35 30 24 20 19 15 15 17 20 21 22 22 28 30 31 30 30 31 32 32 34 35 37 38 40 43 47
60 59 56 59 59 57 57 62 66 66 68 66 65 61 55 48 42 37 33 27 19 19 19 18 18 18 20 20 24 29 29 29 29 28 28 30 30 31 33 36 38 40 42 44
65 63 59 58 57 59 58 62 66 69 72 67 59 56 52 48 43 37 29 25 21 19 20 20 18 16 18 20 25 28 27 27 26 26 25 26 27 28 30 32 34 37 39 43
59 60 61 60 59 60 63 62 70 70 64 64 61 57 51 48 41 36 30 22 24 20 18 21 17 18 21 23 26 26 24 23 22 21 21 21 22 25 27 30 32 34 37 40
53 52 55 62 58 61 68 66 63 61 59 55 56 53 51 48 40 31 26 20 19 18 22 23 20 22 24 26 26 25 23 21 19 19 19 20 21 23 25 27 29 31 33 36
49 49 47 55 64 63 64 56 52 53 59 58 56 53 48 44 35 28 26 21 18 21 23 23 23 25 27 27 25 24 23 20 18 17 18 18 19 21 23 26 28 29 32 35
49 50 53 59 64 62 59 62 60 59 64 61 58 55 52 44 36 33 30 23 23 27 24 22 24 27 28 28 26 24 23 20 18 16 17 17 17 18 20 22 24 26 29 33
47 48 49 53 53 57 63 68 63 64 65 63 58 53 49 44 40 38 32 30 27 29 32 29 29 29 31 30 29 26 25 21 18 17 16 16 15 16 18 19 21 23 26 30
Wind_Direction_850mb
73 54 161 183 191 191 199 198 193 213 172 180 185 186 191 175 171 187 207 219 3 355 352 349 347 344 342 339 342 342 341 342 340 334 335 335 334 334 332 330 326 328 326 323
174 169 185 195 201 196 209 205 206 221 208 110 136 155 166 192 196 196 218 220 345 343 341 347 344 342 339 338 339 340 338 340 334 335 334 335 333 331 328 326 326 326 325 320
205 182 163 272 228 215 211 213 213 214 214 220 161 181 183 194 198 196 195 82 337 341 344 343 340 339 336 337 337 337 341 335 336 334 332 332 331 329 327 325 324 323 321 322
148 141 214 185 141 210 219 216 211 218 225 214 173 180 193 184 195 178 129 270 339 345 340 336 336 332 334 337 339 340 337 336 336 335 335 334 331 331 329 323 320 321 322 322
158 201 315 187 194 188 191 220 206 206 197 186 165 142 185 214 168 145 163 144 108 340 337 335 332 333 335 340 338 340 339 338 338 338 335 333 336 332 325 327 324 327 327 329
195 204 206 271 150 169 187 236 203 199 187 186 158 187 138 130 135 150 153 147 113 345 340 334 332 331 338 339 341 339 338 338 337 336 335 339 329 328 332 333 336 336 335 337
190 225 266 140 145 151 161 214 176 179 186 180 167 185 133 137 147 159 160 155 58 351 346 335 332 333 338 341 339 337 336 333 337 339 340 331 336 339 341 347 347 345 342 338
200 202 234 152 150 177 143 128 140 159 165 163 172 140 140 153 165 166 167 181 301 356 342 337 331 337 340 340 337 336 333 338 341 341 338 341 346 347 354 352 348 345 342 339
193 200 246 161 158 158 145 139 144 153 156 166 165 168 172 177 175 176 179 189 187 347 342 335 343 343 340 339 338 335 339 343 342 340 343 354 356 357 356 355 351 347 345 342
168 204 168 162 160 158 161 155 156 161 161 168 172 176 184 185 185 183 185 179 174 339 344 347 345 347 345 341 336 341 345 347 342 343 352 357 4 5 1 358 353 353 352 349
192 165 164 173 171 162 164 165 165 167 169 174 181 188 187 191 192 180 177 176 183 214 359 346 348 346 346 336 337 346 351 344 337 350 356 359 5 4 4 3 359 358 357 352
196 181 166 182 177 176 171 175 175 174 174 185 192 189 186 195 182 175 181 181 173 175 350 348 346 342 340 330 343 347 350 340 338 342 355 1 2 359 5 4 6 5 4 1
192 185 179 178 185 186 182 181 184 186 193 186 185 189 190 191 180 178 177 179 175 176 162 348 327 341 326 336 346 350 340 338 330 337 351 357 3 1 356 357 3 7 7 9
201 170 170 165 178 190 193 188 191 194 193 194 191 192 193 183 183 180 186 186 180 179 179 272 315 328 324 342 346 350 345 325 328 348 346 350 1 2 359 358 358 0 3 5
180 176 169 166 172 177 187 190 182 185 189 193 198 196 186 182 186 182 183 183 185 187 190 265 308 311 323 341 345 348 339 333 350 357 336 344 352 357 358 355 357 1 0 2
193 176 185 181 184 184 184 185 182 186 194 195 192 184 182 183 184 182 181 192 199 190 220 266 290 300 324 333 340 343 340 347 354 351 332 346 353 356 355 355 355 360 2 1
195 200 193 190 191 190 189 189 191 191 192 190 186 181 182 182 181 181 181 197 209 230 251 272 280 301 315 323 333 338 343 350 347 348 333 347 352 355 356 356 357 360 2 4
208 204 202 198 194 194 194 194 195 192 192 188 185 185 186 186 185 184 189 210 223 241 252 264 286 300 304 313 326 334 341 344 345 343 343 351 355 359 356 359 1 1 1 4
208 211 207 204 202 201 199 196 194 195 193 189 188 190 195 198 197 199 209 219 232 244 256 269 285 290 297 306 320 330 336 338 342 342 344 348 350 355 356 357 0 2 3 6
209 212 209 204 207 204 202 200 194 195 194 192 193 197 201 204 203 206 212 225 236 252 263 279 288 294 296 304 321 326 332 334 338 338 341 343 345 349 351 352 356 359 2 6
205 209 211 201 201 200 199 197 194 194 196 198 203 203 202 202 205 209 215 226 237 251 259 271 286 297 297 312 315 319 325 329 332 335 338 342 346 350 355 359 2 4 5 8
204 207 210 208 205 197 197 195 198 198 199 199 199 199 198 200 203 210 218 232 242 245 252 263 283 307 304 303 303 310 319 327 332 336 343 348 353 358 1 2 4 7 11 14
198 203 209 210 202 198 192 194 197 201 195 196 195 195 198 202 204 208 218 228 246 250 248 260 286 299 302 297 300 308 316 320 324 330 337 343 348 355 358 0 5 8 11 13
191 191 198 201 192 184 183 186 195 197 199 197 197 197 198 199 203 208 221 232 232 237 246 265 275 286 294 294 296 300 303 309 315 322 329 335 344 353 356 358 3 8 12 13
186 182 183 182 180 182 181 176 186 196 195 194 194 195 198 206 214 212 227 237 236 237 253 263 268 276 283 287 286 287 291 299 304 311 320 328 336 347 351 354 360 5 10 12
176 175 181 182 181 182 183 183 182 189 187 190 191 193 197 202 206 214 232 240 239 240 252 263 267 271 277 281 279 275 278 286 291 300 307 316 326 338 345 349 355 0 5 7
174 175 172 170 171 173 174 175 176 183 186 191 192 195 201 206 215 224 235 245 248 245 253 261 267 270 274 274 271 268 270 275 279 288 295 302 313 326 335 341 347 353 358 0